Hourly Data Report for November 10, 2020

MUSKOKA
ONTARIO
Current Station Operator: NAVCAN

44°58'29.000" N
79°18'12.000" W
281.90 m
6115529
71532
YQA

Download Data

Hourly Data (November 2020)
Hourly Data Report for November 10, 2020
TIME
LST
Temp Definition
°C
Dew Point Definition
°C
Rel Hum Definition
%
Precip. Amount Definition
mm

Wind Dir Definition
10's deg

Wind Spd Definition
km/h
Visibility Definition
km
Stn Press Definition
kPa
Hmdx Definition


Wind Chill Definition


Weather Definition


00:00 10.4 6.8 78 LegendMM 15 11 16.1 98.40     LegendNANA
01:00 11.2 7.1 76 LegendMM 16 13 16.1 98.35     LegendNANA
02:00 11.6 7.4 75 LegendMM 15 11 16.1 98.29     LegendNANA
03:00 12.2 8.0 76 LegendMM 15 9 16.1 98.25     LegendNANA
04:00 12.9 8.8 76 LegendMM 17 13 16.1 98.19     LegendNANA
05:00 13.1 9.2 77 LegendMM 16 13 16.1 98.16     LegendNANA
06:00 13.0 9.3 78 LegendMM 16 13 16.1 98.14     LegendNANA
07:00 13.0 9.5 79 LegendMM 16 15 16.1 98.13     LegendNANA
08:00 13.7 9.8 77 LegendMM 17 13 16.1 98.11     LegendNANA
09:00 14.9 10.2 73 LegendMM 17 17 16.1 98.08     LegendNANA
10:00 15.9 10.5 70 LegendMM 16 17 16.1 98.05     LegendNANA
11:00 18.0 11.4 65 LegendMM 18 15 16.1 98.02     LegendNANA
12:00 20.0 12.2 60 LegendMM 17 13 LegendMM 97.95     LegendNANA
13:00 20.9 13.1 60 LegendMM 18 17 LegendMM 97.91     LegendNANA
14:00 19.6 13.6 68 LegendMM 17 13 LegendMM 97.86     LegendNANA
15:00 20.2 14.0 67 LegendMM 16 13 LegendMM 97.80     LegendNANA
16:00 20.3 14.5 69 LegendMM 16 8 LegendMM 97.76     LegendNANA
17:00 18.8 14.1 74 LegendMM 17 13 LegendMM 97.74     LegendNANA
18:00 19.1 14.0 72 LegendMM 17 15 LegendMM 97.76     LegendNANA
19:00 18.4 12.7 69 LegendMM 17 21 LegendMM 97.73     LegendNANA
20:00 17.5 12.5 72 LegendMM 17 21 LegendMM 97.70     LegendNANA
21:00 18.0 12.5 70 LegendMM 17 21 LegendMM 97.62     LegendNANA
22:00 17.5 12.5 72 LegendMM 17 17 LegendMM 97.57     LegendNANA
23:00 18.2 12.5 69 LegendMM 18 26 LegendMM 97.50     LegendNANA

Notes on Data Quality.

Legend

  • E = Estimated
  • M = Missing
  • NA = Not Available*
  • [empty] = Indicates an unobserved value
Date modified: